Location: Melbourne
(37.8666°S, 145.1333°E)
Time: 11:44:54
(UTC+10:00)

Amateur Radio Satellites - All Passes

Search period start: 19 September 2014 11:14
Search period end: 20 September 2014 11:14
Location: Melbourne, 37.8666°S, 145.1333°E

Satellite Date Start Highest point End Downlink Frequencies (MHz)
Time Altitude Azimuth
Oscar 16 19 Sep 12:31:26 12:32:54 11° 90° (E) 12:34:22 437.025 USB, Beacon 2401.1428
UOSAT-12 19 Sep 12:31:56 12:36:14 46° 235° (SW) 12:40:32 437.025 FM, 437.400 FM
JAS-1B 19 Sep 12:43:50 12:50:24 19° 93° (E) 12:56:51 435.800 - 435.900 CW/SSB
ITAMSAT 1 19 Sep 13:12:47 13:14:21 11° 90° (E) 13:15:53 435.822 SSB
Uribyol 2 19 Sep 13:16:22 13:18:54 14° 89° (E) 13:21:25 436.500 FM
Oscar 19 19 Sep 13:29:03 13:34:01 43° 81° (E) 13:38:57 437.125 CW, 437.150 USB
KITSAT 1 19 Sep 13:33:00 13:34:18 10° 157° (SSE) 13:35:37 435.175 FM
AO-27 19 Sep 13:45:09 13:49:31 26° 85° (E) 13:53:49 436.795 MHz FM
Saudisat 1A 19 Sep 13:58:57 14:03:24 71° 122° (ESE) 14:07:48 436.775 MHz
Oscar 16 19 Sep 14:07:33 14:12:47 77° 255° (WSW) 14:17:57 437.025 USB, Beacon 2401.1428
ISS 19 Sep 14:07:58 14:11:14 52° 44° (NE) 14:14:34 145.800 FM
PANSAT 19 Sep 14:23:27 14:26:14 19° 7° (N) 14:29:01 not established
AO-Echo 19 Sep 14:28:03 14:33:20 84° 77° (ENE) 14:38:22 ?
JAS-1B 19 Sep 14:31:57 14:41:53 86° 75° (ENE) 14:51:40 435.800 - 435.900 CW/SSB
Gurwin Techsat 1B 19 Sep 14:32:10 14:37:04 35° 83° (E) 14:41:54 435.225 FM
RS-15 19 Sep 14:36:25 14:46:17 31° 77° (ENE) 14:56:19 29.354 - 29.394 USB, Beacon 29.352 USB
ITAMSAT 1 19 Sep 14:49:07 14:54:23 77° 255° (WSW) 14:59:34 435.822 SSB
AO-7 19 Sep 14:51:27 14:53:02 11° 92° (E) 14:54:36 29.400 - 29.500 MHz
Uribyol 2 19 Sep 14:53:37 14:58:49 65° 254° (WSW) 15:03:56 436.500 FM
Oscar 19 19 Sep 15:09:08 15:13:02 22° 245° (WSW) 15:16:55 437.125 CW, 437.150 USB
TMSAT-1 19 Sep 15:09:32 15:14:50 58° 79° (E) 15:20:03 436.925 FM
AO-27 19 Sep 15:24:17 15:29:02 35° 249° (WSW) 15:33:44 436.795 MHz FM
KITSAT 1 19 Sep 15:25:13 15:32:37 36° 131° (SE) 15:39:57 435.175 FM
Uosat F 19 Sep 15:38:36 15:41:55 17° 87° (E) 15:45:11 435.120 FM
OPAL 19 Sep 15:39:39 15:44:22 42° 111° (ESE) 15:49:05 ?
Saudisat 1A 19 Sep 15:41:51 15:42:20 10° 287° (WNW) 15:42:49 436.775 MHz
ISS 19 Sep 15:45:30 15:48:10 21° 207° (SSW) 15:50:51 145.800 FM
PANSAT 19 Sep 16:03:00 16:05:50 19° 354° (N) 16:08:41 not established
AO-Echo 19 Sep 16:09:28 16:11:16 12° 240° (WSW) 16:13:02 ?
Gurwin Techsat 1B 19 Sep 16:12:22 16:16:52 28° 247° (WSW) 16:21:19 435.225 FM
JAS-1B 19 Sep 16:23:49 16:31:11 26° 238° (WSW) 16:38:39 435.800 - 435.900 CW/SSB
AO-7 19 Sep 16:38:42 16:47:08 70° 75° (ENE) 16:55:27 29.400 - 29.500 MHz
RS-15 19 Sep 16:45:37 16:57:42 73° 237° (WSW) 17:10:05 29.354 - 29.394 USB, Beacon 29.352 USB
TMSAT-1 19 Sep 16:50:49 16:54:13 17° 243° (WSW) 16:57:37 436.925 FM
Uosat F 19 Sep 17:16:02 17:20:57 50° 252° (WSW) 17:25:48 435.120 FM
Hamsat 19 Sep 17:18:24 17:21:31 19° 86° (E) 17:24:37 145.90 MHz
OPAL 19 Sep 17:19:44 17:23:23 20° 276° (W) 17:27:04 ?
KITSAT 1 19 Sep 17:20:26 17:28:15 53° 291° (WNW) 17:36:01 435.175 FM
SO-50 19 Sep 17:42:49 17:45:02 13° 138° (SE) 17:47:13 436.795 FM
PANSAT 19 Sep 17:44:26 17:45:21 11° 342° (NNW) 17:46:16 not established
STRAND 1 19 Sep 17:57:41 18:02:41 52° 108° (ESE) 18:07:46 ?
JAS-2 19 Sep 18:00:37 18:07:37 66° 80° (E) 18:13:41 435.800 - 435.900 CW/SSB, 435.910 FM
AO-40 19 Sep 18:05:56 00:44:09 52° 3° (N) 07:25:52 Beacon 2401.320
AO-7 19 Sep 18:32:34 18:39:10 27° 237° (WSW) 18:45:45 29.400 - 29.500 MHz
Hamsat 19 Sep 18:53:35 18:57:32 34° 252° (WSW) 19:01:28 145.90 MHz
RS-15 19 Sep 19:03:11 19:12:52 26° 209° (SSW) 19:22:38 29.354 - 29.394 USB, Beacon 29.352 USB
ISS 19 Sep 19:03:14 19:04:02 11° 166° (SSE) 19:04:50 145.800 FM
SO-67 19 Sep 19:18:17 19:21:49 64° 80° (E) 19:25:17 435.3500 MHz FM
SO-50 19 Sep 19:21:38 19:26:11 80° 299° (WNW) 19:30:37 436.795 FM
UOSAT-12 19 Sep 19:25:01 19:26:31 11° 138° (SE) 19:28:01 437.025 FM, 437.400 FM
STRAND 1 19 Sep 19:38:48 19:42:09 17° 273° (W) 19:45:32 ?
JAS-2 19 Sep 19:46:51 19:51:50 21° 239° (WSW) 19:56:26 435.800 - 435.900 CW/SSB, 435.910 FM
HO-68 19 Sep 20:09:01 20:14:06 20° 87° (E) 20:19:07 435.675 MHz FM
MaSat-1 19 Sep 20:29:03 20:31:20 37° 243° (WSW) 20:33:41 437.345 MHz
ISS 19 Sep 20:38:23 20:41:34 35° 147° (SSE) 20:44:43 145.800 FM
UKube-1 19 Sep 20:42:30 20:44:06 12° 89° (E) 20:45:42 145.840 MHz, 145.915 MHz
UOSAT-12 19 Sep 21:02:51 21:07:17 88° 120° (ESE) 21:11:45 437.025 FM, 437.400 FM
RS-15 19 Sep 21:24:04 21:31:45 18° 173° (S) 21:39:19 29.354 - 29.394 USB, Beacon 29.352 USB
FUNcube-1 19 Sep 21:49:25 21:52:27 19° 86° (E) 21:55:28 145.950 - 145.970 MHz USB
HO-68 19 Sep 21:55:08 22:02:19 69° 251° (WSW) 22:09:25 435.675 MHz FM
Oscar 11 19 Sep 22:00:00 22:04:25 71° 79° (ENE) 22:08:46 145.825 FM, Beacon 2401.500 USB
ISS 19 Sep 22:15:23 22:18:10 23° 311° (NW) 22:20:55 145.800 FM
UKube-1 19 Sep 22:16:17 22:20:37 56° 253° (WSW) 22:24:54 145.840 MHz, 145.915 MHz
Oscar 10/S400 19 Sep 22:32:47 01:24:30 24° 95° (E) 02:56:36 145.825 - 145.975 CW/USB, Beacon 145.810 USB
Sapphire 19 Sep 23:07:43 23:12:22 30° 72° (ENE) 23:17:03 437.095 MHz 1200 baud AX-25 AFSK
FUNcube-1 19 Sep 23:25:09 23:28:53 31° 251° (WSW) 23:32:37 145.950 - 145.970 MHz USB
JAS-1B 19 Sep 23:31:29 23:33:12 11° 133° (SE) 23:34:58 435.800 - 435.900 CW/SSB
PCSat 19 Sep 23:34:01 23:39:18 57° 67° (ENE) 23:44:37 145.825 MHz
RS-15 19 Sep 23:38:22 23:49:26 38° 139° (SE) 00:00:00 29.354 - 29.394 USB, Beacon 29.352 USB
Oscar 11 19 Sep 23:39:20 23:39:57 10° 243° (WSW) 23:40:34 145.825 FM, Beacon 2401.500 USB
HO-68 19 Sep 23:46:03 23:48:41 12° 232° (SW) 23:51:20 435.675 MHz FM
Oscar 16 19 Sep 23:46:11 23:49:05 15° 117° (ESE) 23:52:00 437.025 USB, Beacon 2401.1428
AO-Echo 20 Sep 00:04:29 00:05:55 11° 120° (ESE) 00:07:21 ?
ITAMSAT 1 20 Sep 00:28:21 00:31:33 17° 117° (ESE) 00:34:45 435.822 SSB
Uribyol 2 20 Sep 00:32:12 00:35:48 19° 116° (ESE) 00:39:25 436.500 FM
Oscar 19 20 Sep 00:44:07 00:49:06 52° 108° (ESE) 00:54:08 437.125 CW, 437.150 USB
Sapphire 20 Sep 00:50:41 00:55:39 36° 235° (SW) 01:00:40 437.095 MHz 1200 baud AX-25 AFSK
AO-27 20 Sep 01:01:26 01:06:07 34° 111° (ESE) 01:10:51 436.795 MHz FM
JAS-1B 20 Sep 01:15:05 01:21:39 60° 111° (ESE) 01:29:36 435.800 - 435.900 CW/SSB
PCSat 20 Sep 01:19:01 01:23:04 21° 229° (SW) 01:27:10 145.825 MHz
Oscar 16 20 Sep 01:22:45 01:27:51 64° 281° (WNW) 01:33:01 437.025 USB, Beacon 2401.1428
AO-Echo 20 Sep 01:38:32 01:43:48 87° 104° (ESE) 01:49:13 ?
AO-7 20 Sep 01:47:19 01:52:10 17° 129° (SE) 01:57:02 29.400 - 29.500 MHz
RS-15 20 Sep 01:50:56 02:02:54 72° 295° (WNW) 02:14:15 29.354 - 29.394 USB, Beacon 29.352 USB
Gurwin Techsat 1B 20 Sep 01:51:23 01:56:28 46° 109° (ESE) 02:01:36 435.225 FM
ITAMSAT 1 20 Sep 02:05:18 02:10:29 61° 281° (WNW) 02:15:44 435.822 SSB
Uribyol 2 20 Sep 02:09:44 02:14:50 52° 280° (W) 02:19:59 436.500 FM
Oscar 19 20 Sep 02:25:30 02:28:44 17° 272° (W) 02:32:00 437.125 CW, 437.150 USB
TMSAT-1 20 Sep 02:28:23 02:33:42 76° 105° (ESE) 02:39:05 436.925 FM
AO-27 20 Sep 02:41:10 02:45:36 28° 276° (W) 02:50:06 436.795 MHz FM
Uosat F 20 Sep 02:50:08 02:53:54 21° 115° (ESE) 02:57:41 435.120 FM
JAS-1B 20 Sep 03:07:46 03:12:57 23° 268° (W) 03:18:53 435.800 - 435.900 CW/SSB
Gurwin Techsat 1B 20 Sep 03:32:44 03:36:37 20° 273° (W) 03:40:33 435.225 FM
AO-7 20 Sep 03:35:16 03:43:35 78° 110° (ESE) 03:52:02 29.400 - 29.500 MHz
OPAL 20 Sep 03:53:16 03:55:21 12° 87° (E) 03:57:25 ?
Saudisat 1A 20 Sep 04:04:11 04:07:56 28° 67° (ENE) 04:11:43 436.775 MHz
RS-15 20 Sep 04:08:00 04:12:55 14° 275° (W) 04:17:47 29.354 - 29.394 USB, Beacon 29.352 USB
JAS-2 20 Sep 04:09:27 04:15:50 29° 117° (ESE) 04:22:20 435.800 - 435.900 CW/SSB, 435.910 FM
Hamsat 20 Sep 04:12:05 04:13:22 11° 116° (ESE) 04:14:39 145.90 MHz
TMSAT-1 20 Sep 04:12:14 04:14:09 12° 270° (W) 04:16:05 436.925 FM
Uosat F 20 Sep 04:27:32 04:32:21 43° 279° (W) 04:37:13 435.120 FM
MaSat-1 20 Sep 04:44:40 04:47:08 17° 121° (ESE) 04:49:49 437.345 MHz
OPAL 20 Sep 05:29:36 05:34:39 69° 252° (WSW) 05:39:42 ?
AO-7 20 Sep 05:31:21 05:37:06 20° 273° (W) 05:42:57 29.400 - 29.500 MHz
Saudisat 1A 20 Sep 05:43:34 05:47:26 29° 231° (SW) 05:51:19 436.775 MHz
Hamsat 20 Sep 05:44:38 05:48:46 59° 280° (W) 05:52:59 145.90 MHz
SO-67 20 Sep 05:50:30 05:52:44 16° 111° (ESE) 05:55:00 435.3500 MHz FM
KITSAT 1 20 Sep 05:52:29 05:59:04 29° 75° (ENE) 06:05:41 435.175 FM
JAS-2 20 Sep 05:52:43 06:00:15 61° 280° (W) 06:08:07 435.800 - 435.900 CW/SSB, 435.910 FM
STRAND 1 20 Sep 06:11:06 06:14:53 20° 86° (E) 06:18:37 ?
MaSat-1 20 Sep 06:20:18 06:23:51 37° 290° (WNW) 06:27:51 437.345 MHz
HO-68 20 Sep 06:38:16 06:41:38 14° 126° (SE) 06:45:02 435.675 MHz FM
SO-67 20 Sep 07:22:37 07:25:33 25° 276° (W) 07:28:31 435.3500 MHz FM
KITSAT 1 20 Sep 07:45:58 07:53:55 60° 237° (WSW) 08:01:58 435.175 FM
STRAND 1 20 Sep 07:49:21 07:54:15 44° 251° (WSW) 07:59:04 ?
Sapphire 20 Sep 07:57:35 08:01:24 19° 132° (SE) 08:05:12 437.095 MHz 1200 baud AX-25 AFSK
HO-68 20 Sep 08:20:57 08:28:08 76° 108° (ESE) 08:35:23 435.675 MHz FM
PCSat 20 Sep 08:23:58 08:28:49 32° 126° (SE) 08:33:38 145.825 MHz
FUNcube-1 20 Sep 08:45:14 08:47:30 14° 114° (ESE) 08:49:45 145.950 - 145.970 MHz USB
Oscar 11 20 Sep 08:53:14 08:57:20 43° 107° (ESE) 09:01:29 145.825 FM, Beacon 2401.500 USB
UKube-1 20 Sep 09:09:34 09:13:58 82° 283° (WNW) 09:18:27 145.840 MHz, 145.915 MHz
SO-50 20 Sep 09:34:21 09:39:03 52° 64° (ENE) 09:43:42 436.795 FM
Sapphire 20 Sep 09:39:55 09:45:18 64° 294° (WNW) 09:50:38 437.095 MHz 1200 baud AX-25 AFSK
KITSAT 1 20 Sep 09:46:35 09:51:12 16° 213° (SSW) 09:55:51 435.175 FM
PCSat 20 Sep 10:07:21 10:12:11 34° 289° (WNW) 10:17:00 145.825 MHz
HO-68 20 Sep 10:11:49 10:16:27 18° 272° (W) 10:21:08 435.675 MHz FM
FUNcube-1 20 Sep 10:19:11 10:23:28 50° 280° (W) 10:27:43 145.950 - 145.970 MHz USB
Oscar 11 20 Sep 10:31:15 10:33:43 15° 272° (W) 10:36:11 145.825 FM, Beacon 2401.500 USB
